�������l�o���
Date,Time,MP-1(��Sv/h),MP-2(��Sv/h),MP-3(��Sv/h),MP-4(��Sv/h),MP-5(��Sv/h),MP-6(��Sv/h),MP-7(��Sv/h),MP-8(��Sv/h),����,����(m/s),���J
2021/08/01,00:00,0.576,0.853,0.546,1.032,0.731,0.356,0.615,0.579,�k�k��,5.3,�L
2021/08/01,00:10,0.576,0.851,0.547,1.036,0.730,0.357,0.617,0.578,�k�k��,5.5,��
2021/08/01,00:20,0.577,0.852,0.547,1.039,0.732,0.357,0.615,0.578,�k�k��,5.1,��
2021/08/01,00:30,0.579,0.853,0.550,1.038,0.733,0.357,0.617,0.578,�k�k��,4.7,��
2021/08/01,00:40,0.577,0.853,0.549,1.040,0.734,0.358,0.617,0.579,�k�k��,4.9,��
2021/08/01,00:50,0.579,0.856,0.550,1.042,0.734,0.356,0.615,0.579,�k�k��,5.2,��
2021/08/01,01:00,0.580,0.856,0.550,1.042,0.735,0.356,0.616,0.581,�k�k��,4.2,��
2021/08/01,01:10,0.580,0.856,0.551,1.041,0.736,0.357,0.617,0.579,�k��,3.0,��
2021/08/01,01:20,0.579,0.857,0.549,1.042,0.736,0.359,0.617,0.580,�k��,3.5,��
2021/08/01,01:30,0.580,0.860,0.552,1.044,0.737,0.358,0.617,0.580,�k��,3.1,��
2021/08/01,01:40,0.579,0.859,0.552,1.045,0.738,0.358,0.617,0.580,�k��,2.6,��
2021/08/01,01:50,0.582,0.860,0.553,1.042,0.738,0.357,0.620,0.581,���k��,3.1,��
2021/08/01,02:00,0.580,0.860,0.553,1.046,0.738,0.359,0.618,0.582,���k��,3.6,��
2021/08/01,02:10,0.582,0.859,0.553,1.046,0.740,0.359,0.618,0.582,�k��,3.2,��
2021/08/01,02:20,0.582,0.861,0.553,1.046,0.738,0.359,0.619,0.583,�k��,3.2,��
2021/08/01,02:30,0.581,0.860,0.553,1.049,0.739,0.360,0.620,0.583,���k��,2.0,��
2021/08/01,02:40,0.584,0.863,0.555,1.047,0.739,0.360,0.618,0.583,���k��,2.5,��
2021/08/01,02:50,0.582,0.860,0.554,1.046,0.741,0.360,0.620,0.584,���k��,1.7,��
2021/08/01,03:00,0.583,0.862,0.554,1.047,0.738,0.360,0.620,0.584,�k�k��,0.9,��
2021/08/01,03:10,0.584,0.860,0.555,1.047,0.740,0.359,0.620,0.583,�k�k��,1.2,��
2021/08/01,03:20,0.583,0.863,0.554,1.049,0.740,0.360,0.620,0.583,-,CALM,��
2021/08/01,03:30,0.584,0.861,0.555,1.048,0.741,0.360,0.620,0.583,-,CALM,��
2021/08/01,03:40,0.583,0.864,0.554,1.048,0.740,0.360,0.621,0.584,��쓌,0.6,��
2021/08/01,03:50,0.583,0.862,0.556,1.050,0.741,0.359,0.621,0.582,��,1.1,��
2021/08/01,04:00,0.583,0.863,0.555,1.050,0.740,0.359,0.619,0.583,��,2.9,��
2021/08/01,04:10,0.582,0.863,0.554,1.049,0.740,0.361,0.620,0.584,��쐼,3.4,��
2021/08/01,04:20,0.583,0.863,0.554,1.049,0.741,0.360,0.621,0.583,��쐼,3.5,��
2021/08/01,04:30,0.583,0.864,0.554,1.050,0.742,0.361,0.619,0.584,��,3.6,��
2021/08/01,04:40,0.584,0.865,0.554,1.050,0.741,0.359,0.621,0.583,��,3.7,��
2021/08/01,04:50,0.585,0.864,0.554,1.051,0.741,0.360,0.620,0.584,��쐼,4.0,��
2021/08/01,05:00,0.584,0.864,0.555,1.050,0.743,0.360,0.621,0.583,��쐼,4.3,��
2021/08/01,05:10,0.584,0.864,0.553,1.049,0.740,0.362,0.620,0.584,��,3.9,��
2021/08/01,05:20,0.583,0.864,0.553,1.052,0.743,0.360,0.621,0.584,��쐼,3.1,��
2021/08/01,05:30,0.585,0.864,0.555,1.052,0.741,0.361,0.621,0.584,�쐼,3.4,��
2021/08/01,05:40,0.584,0.865,0.554,1.052,0.742,0.361,0.622,0.584,�쐼,2.8,��
2021/08/01,05:50,0.584,0.864,0.555,1.054,0.742,0.361,0.622,0.584,��쐼,2.6,��
2021/08/01,06:00,0.584,0.864,0.557,1.055,0.742,0.362,0.623,0.584,�쐼,1.5,��
2021/08/01,06:10,0.585,0.866,0.556,1.053,0.744,0.362,0.622,0.584,�쐼,1.5,��
2021/08/01,06:20,0.585,0.866,0.556,1.052,0.743,0.360,0.623,0.584,-,CALM,��
2021/08/01,06:30,0.586,0.864,0.555,1.051,0.744,0.363,0.622,0.585,-,CALM,��
2021/08/01,06:40,0.586,0.863,0.555,1.053,0.744,0.362,0.623,0.584,-,CALM,��
2021/08/01,06:50,0.587,0.864,0.556,1.052,0.742,0.361,0.622,0.584,�k�k��,1.4,��
2021/08/01,07:00,0.588,0.864,0.555,1.053,0.742,0.361,0.623,0.586,��,0.6,��
2021/08/01,07:10,0.585,0.866,0.556,1.053,0.743,0.361,0.622,0.585,��,0.9,��
2021/08/01,07:20,0.587,0.865,0.556,1.052,0.744,0.361,0.622,0.584,-,CALM,��
2021/08/01,07:30,0.587,0.866,0.556,1.052,0.745,0.362,0.621,0.583,-,CALM,��
2021/08/01,07:40,0.585,0.867,0.558,1.051,0.745,0.362,0.624,0.587,��,0.6,��
2021/08/01,07:50,0.587,0.867,0.557,1.053,0.743,0.361,0.622,0.584,��쓌,0.9,��
2021/08/01,08:00,0.587,0.868,0.558,1.054,0.743,0.362,0.623,0.583,�쓌,1.7,��
2021/08/01,08:10,0.587,0.869,0.556,1.055,0.746,0.362,0.623,0.582,�쓌,2.3,��
2021/08/01,08:20,0.588,0.868,0.558,1.053,0.746,0.361,0.621,0.583,�쓌,3.3,��
2021/08/01,08:30,0.589,0.869,0.556,1.054,0.747,0.361,0.622,0.584,�쓌,3.3,��
2021/08/01,08:40,0.588,0.870,0.558,1.054,0.748,0.362,0.622,0.584,�쓌,2.0,��
2021/08/01,08:50,0.589,0.870,0.560,1.055,0.746,0.363,0.624,0.584,��쓌,2.3,��
2021/08/01,09:00,0.590,0.870,0.559,1.055,0.749,0.362,0.623,0.584,��,3.4,��
2021/08/01,09:10,0.588,0.871,0.559,1.054,0.749,0.362,0.625,0.585,��쓌,3.7,��
2021/08/01,09:20,0.591,0.871,0.559,1.056,0.750,0.363,0.625,0.584,��쓌,3.6,��
2021/08/01,09:30,0.590,0.874,0.560,1.057,0.750,0.362,0.626,0.584,��쓌,4.1,��
2021/08/01,09:40,0.591,0.872,0.560,1.057,0.750,0.361,0.626,0.585,��쓌,5.3,��
2021/08/01,09:50,0.591,0.873,0.559,1.055,0.751,0.364,0.626,0.584,��쓌,6.4,��
2021/08/01,10:00,0.591,0.871,0.560,1.056,0.751,0.363,0.625,0.585,��쓌,5.6,��
2021/08/01,10:10,0.591,0.874,0.561,1.058,0.750,0.363,0.624,0.584,��쓌,6.6,��
2021/08/01,10:20,0.591,0.874,0.560,1.058,0.752,0.364,0.625,0.584,��쓌,7.3,��
2021/08/01,10:30,0.591,0.874,0.561,1.058,0.751,0.363,0.626,0.585,��쓌,7.6,��
2021/08/01,10:40,0.593,0.875,0.562,1.059,0.752,0.365,0.625,0.586,��쓌,7.4,��
2021/08/01,10:50,0.591,0.872,0.561,1.058,0.752,0.362,0.624,0.583,��,7.8,��
2021/08/01,11:00,0.591,0.875,0.561,1.059,0.752,0.363,0.626,0.587,��,7.0,��
2021/08/01,11:10,0.591,0.874,0.561,1.061,0.754,0.364,0.625,0.584,��쓌,8.8,��
2021/08/01,11:20,0.593,0.877,0.561,1.059,0.754,0.362,0.626,0.585,��,6.7,��
2021/08/01,11:30,0.592,0.876,0.563,1.062,0.754,0.362,0.627,0.585,��,7.1,��
2021/08/01,11:40,0.594,0.879,0.563,1.063,0.753,0.363,0.627,0.587,��쓌,6.9,��
2021/08/01,11:50,0.594,0.877,0.562,1.062,0.753,0.364,0.627,0.587,��쓌,7.0,��
2021/08/01,12:00,0.593,0.876,0.564,1.060,0.757,0.364,0.625,0.585,��,6.1,��
2021/08/01,12:10,0.593,0.877,0.561,1.060,0.753,0.364,0.628,0.588,��,6.1,��
2021/08/01,12:20,0.594,0.878,0.564,1.059,0.754,0.363,0.628,0.586,��,5.3,��
2021/08/01,12:30,0.592,0.878,0.563,1.062,0.754,0.364,0.628,0.586,��쓌,7.1,��
2021/08/01,12:40,0.593,0.876,0.563,1.059,0.756,0.362,0.627,0.586,��,7.8,��
2021/08/01,12:50,0.594,0.876,0.563,1.060,0.756,0.364,0.625,0.585,��,6.1,��
2021/08/01,13:00,0.595,0.877,0.563,1.058,0.755,0.363,0.627,0.586,��,6.7,��
2021/08/01,13:10,0.595,0.878,0.564,1.061,0.757,0.364,0.627,0.586,��,8.9,��
2021/08/01,13:20,0.594,0.878,0.564,1.061,0.757,0.362,0.625,0.586,��,8.2,��
2021/08/01,13:30,0.595,0.878,0.562,1.061,0.757,0.363,0.627,0.584,��,8.4,��
2021/08/01,13:40,0.594,0.878,0.562,1.063,0.757,0.364,0.627,0.585,��,6.2,��
2021/08/01,13:50,0.594,0.880,0.565,1.063,0.756,0.363,0.627,0.586,��,6.9,��
2021/08/01,14:00,0.594,0.881,0.564,1.062,0.758,0.363,0.625,0.587,��,6.5,��
2021/08/01,14:10,0.594,0.881,0.566,1.065,0.756,0.363,0.626,0.586,��,6.4,��
2021/08/01,14:20,0.594,0.880,0.566,1.065,0.757,0.363,0.626,0.585,��,6.4,��
2021/08/01,14:30,0.593,0.880,0.562,1.064,0.759,0.364,0.626,0.586,��,5.7,��
2021/08/01,14:40,0.595,0.880,0.564,1.062,0.756,0.362,0.627,0.587,��,6.1,��
2021/08/01,14:50,0.597,0.880,0.564,1.063,0.758,0.361,0.629,0.586,��,6.6,��
2021/08/01,15:00,0.596,0.881,0.563,1.061,0.758,0.364,0.626,0.585,��,5.9,��
2021/08/01,15:10,0.594,0.880,0.564,1.066,0.758,0.363,0.627,0.586,��,5.9,��
2021/08/01,15:20,0.594,0.881,0.564,1.064,0.760,0.363,0.627,0.587,��,7.4,��
2021/08/01,15:30,0.594,0.880,0.564,1.063,0.760,0.366,0.626,0.588,��,8.1,��
2021/08/01,15:40,0.595,0.882,0.565,1.064,0.760,0.366,0.626,0.588,��,7.4,��
2021/08/01,15:50,0.598,0.883,0.565,1.065,0.761,0.366,0.628,0.586,��쓌,8.3,��
2021/08/01,16:00,0.598,0.882,0.564,1.064,0.763,0.366,0.627,0.587,��쓌,10.6,��
2021/08/01,16:10,0.596,0.881,0.564,1.065,0.761,0.368,0.628,0.587,��쓌,10.2,��
2021/08/01,16:20,0.598,0.883,0.565,1.067,0.761,0.366,0.627,0.587,��,9.9,��
2021/08/01,16:30,0.597,0.883,0.564,1.067,0.764,0.365,0.628,0.584,��,10.3,��
2021/08/01,16:40,0.597,0.880,0.564,1.067,0.761,0.365,0.626,0.588,��,10.6,��
2021/08/01,16:50,0.596,0.883,0.564,1.064,0.761,0.365,0.627,0.586,��,8.8,�L
2021/08/01,17:00,0.597,0.881,0.565,1.065,0.759,0.364,0.626,0.586,��쐼,5.5,�L
2021/08/01,17:10,0.596,0.880,0.567,1.068,0.759,0.363,0.627,0.587,��,1.5,�L
2021/08/01,17:20,0.596,0.880,0.566,1.065,0.760,0.365,0.628,0.587,��쓌,0.6,�L
2021/08/01,17:30,0.598,0.883,0.565,1.066,0.760,0.364,0.627,0.587,�k,2.8,��
2021/08/01,17:40,0.597,0.883,0.564,1.069,0.760,0.364,0.627,0.588,���k��,2.0,��
2021/08/01,17:50,0.597,0.882,0.563,1.067,0.759,0.365,0.628,0.586,�k,0.9,��
2021/08/01,18:00,0.596,0.884,0.564,1.066,0.760,0.365,0.627,0.587,�k��,1.1,��
2021/08/01,18:10,0.596,0.883,0.565,1.067,0.760,0.364,0.627,0.586,��쓌,1.7,��
2021/08/01,18:20,0.598,0.884,0.564,1.070,0.759,0.365,0.629,0.587,��쓌,1.5,��
2021/08/01,18:30,0.598,0.882,0.565,1.066,0.761,0.365,0.629,0.588,��쓌,3.5,��
2021/08/01,18:40,0.599,0.884,0.565,1.069,0.761,0.365,0.628,0.587,��,2.8,��
2021/08/01,18:50,0.599,0.885,0.566,1.066,0.761,0.366,0.629,0.587,��,3.1,��
2021/08/01,19:00,0.597,0.883,0.565,1.066,0.761,0.365,0.629,0.587,��쐼,4.5,��
2021/08/01,19:10,0.597,0.885,0.566,1.068,0.762,0.365,0.628,0.589,��,6.4,��
2021/08/01,19:20,0.599,0.887,0.566,1.068,0.760,0.365,0.628,0.589,��,6.3,��
2021/08/01,19:30,0.596,0.885,0.566,1.069,0.761,0.366,0.627,0.589,��,5.2,��
2021/08/01,19:40,0.600,0.883,0.567,1.071,0.763,0.367,0.628,0.588,��,4.0,��
2021/08/01,19:50,0.597,0.885,0.566,1.069,0.763,0.366,0.628,0.588,��,3.9,��
2021/08/01,20:00,0.597,0.884,0.565,1.069,0.762,0.365,0.629,0.587,��,6.4,��
2021/08/01,20:10,0.596,0.884,0.566,1.068,0.761,0.364,0.626,0.587,��,8.1,��
2021/08/01,20:20,0.595,0.885,0.566,1.067,0.761,0.364,0.629,0.588,��,7.4,��
2021/08/01,20:30,0.596,0.885,0.566,1.069,0.761,0.366,0.629,0.588,��,6.4,��
2021/08/01,20:40,0.599,0.884,0.565,1.068,0.762,0.365,0.628,0.588,��,6.9,��
2021/08/01,20:50,0.596,0.885,0.565,1.064,0.760,0.365,0.627,0.587,��,7.9,��
2021/08/01,21:00,0.597,0.883,0.565,1.070,0.759,0.364,0.628,0.588,��,7.4,��
2021/08/01,21:10,0.597,0.884,0.565,1.066,0.760,0.364,0.627,0.587,��,6.8,��
2021/08/01,21:20,0.596,0.884,0.566,1.069,0.762,0.367,0.628,0.589,��,6.1,��
2021/08/01,21:30,0.596,0.884,0.566,1.071,0.760,0.366,0.629,0.589,��,6.2,��
2021/08/01,21:40,0.595,0.883,0.565,1.069,0.762,0.365,0.628,0.589,��,6.2,��
2021/08/01,21:50,0.596,0.885,0.566,1.069,0.761,0.364,0.628,0.589,��,7.1,��
2021/08/01,22:00,0.594,0.883,0.566,1.069,0.763,0.364,0.627,0.588,��,7.4,��
2021/08/01,22:10,0.595,0.884,0.565,1.069,0.762,0.364,0.629,0.588,��,6.5,��
2021/08/01,22:20,0.596,0.882,0.566,1.070,0.762,0.364,0.628,0.589,��쐼,6.7,��
2021/08/01,22:30,0.595,0.883,0.565,1.068,0.764,0.365,0.629,0.589,��,6.0,��
2021/08/01,22:40,0.595,0.884,0.568,1.068,0.761,0.365,0.628,0.589,��,6.1,��
2021/08/01,22:50,0.596,0.884,0.564,1.072,0.762,0.365,0.627,0.588,��쐼,4.9,��
2021/08/01,23:00,0.595,0.885,0.565,1.068,0.762,0.364,0.628,0.588,��,4.5,��
2021/08/01,23:10,0.594,0.887,0.567,1.068,0.761,0.364,0.628,0.588,��,3.7,��
2021/08/01,23:20,0.596,0.884,0.567,1.070,0.764,0.366,0.628,0.589,��,4.2,��
2021/08/01,23:30,0.595,0.886,0.564,1.070,0.761,0.364,0.630,0.588,��,5.1,��
2021/08/01,23:40,0.596,0.886,0.565,1.070,0.763,0.364,0.628,0.587,��,5.5,��
2021/08/01,23:50,0.595,0.885,0.566,1.069,0.763,0.362,0.629,0.588,��,5.2,��
